Location: Unspecified
(0.0000°N, 0.0000°E)
Time: 18:00:17
(UTC+00:00)

COSMOS 2498 - Visible Passes

Search period start: 17 May 2026 00:00
Search period end: 27 May 2026 00:00
Orbit: 1477 x 1511 km, 82.4° (Epoch: 17 May)

Date Brightness Start Highest point End Pass type
(mag) Time Alt. Az. Time Alt. Az. Time Alt. Az.
17 May ? 04:21:56 10° N 04:30:26 61° E 04:39:00 10° SSE visible
18 May ? 03:34:09 10° NNE 03:41:09 27° E 03:48:09 10° SE visible
18 May ? 05:29:48 10° NNW 05:37:33 37° W 05:45:22 10° SSW visible
19 May ? 04:39:34 10° N 04:48:14 80° W 04:56:59 10° S visible
20 May ? 03:50:41 10° NNE 03:58:57 49° E 04:07:15 10° SSE visible
21 May ? 03:03:30 10° NE 03:09:39 21° E 03:15:48 10° SE visible
21 May ? 04:57:53 10° NNW 05:06:03 47° W 05:14:18 10° SSW visible
22 May ? 04:08:03 10° N 04:16:44 84° E 04:25:30 10° S visible
23 May ? 03:19:34 10° NNE 03:27:27 39° E 03:35:21 10° SSE visible
23 May ? 05:17:04 10° NW 05:23:52 26° W 05:30:46 10° SW visible
24 May ? 02:33:15 10° NE 02:38:09 16° E 02:43:04 10° ESE visible
24 May ? 04:26:06 10° NNW 04:34:33 58° W 04:43:06 10° S visible
25 May ? 03:36:38 10° N 03:45:15 68° E 03:53:55 10° SSE visible
26 May ? 02:48:36 10° NNE 02:55:58 31° E 03:03:20 10° SE visible
26 May ? 04:44:53 10° NNW 04:52:22 33° W 04:59:57 10° SSW visible
